Tracking 30701 objects as of 14-Jun-2025
HD Live streaming from Space Station
objects crossing your sky now

SL-24 R/B

Track SL-24 R/B now!
10-day predictions


NORAD ID: 33319
Int'l Code: 2008-040H
Perigee: 623.9 km
Apogee: 1,348.7 km
Inclination: 98.0 °
Period: 104.7 minutes
Semi major axis: 7357 km
RCS: 6.1238 m2 (large)
Launch date: August 29, 2008
Source: Commonwealth of Independent States (former USSR) (CIS)
Launch site: TYURATAM MISSILE AND SPACE COMPLEX (TTMTR)

Note: This is a ROCKET BODY
Your satellite tracking list
Your tracking list is empty




NASA's NSSDC Master Catalog

Two Line Element Set (TLE):
1 33319U 08040H   25165.20961712  .00000054  00000-0  41673-4 0  9992
2 33319  97.9806  65.7371 0492632 299.7712 231.1835 13.75704043842788
Source of the keplerian elements: AFSPC